• en France
  • Liste des pays
  • À 7 jours
  • Température de l'eau
  • Carte satellitaire
  • Carte météo
  • Widgets météo
  • user-avatar
    Se connecter

    Météo par heure à Hamar

    Ce jour, 17 Octobre, Mercredi

    Heure Température Précipitation Vent Pression Humidité
    00:00 +5°C° 0 mm 1 m/s 602 mmHg 85%
    01:00 +5°C° 0 mm 1 m/s 602 mmHg 84%
    02:00 +5°C° 0 mm 1 m/s 602 mmHg 83%
    03:00 +4°C° 0 mm 1 m/s 601 mmHg 82%
    04:00 +4°C° 0 mm 1 m/s 601 mmHg 80%
    05:00 +4°C° 0 mm 1 m/s 601 mmHg 78%
    06:00 +4°C° 0 mm 1 m/s 601 mmHg 76%
    07:00 +6°C° 0 mm 1 m/s 602 mmHg 68%
    08:00 +8°C° 0 mm 1 m/s 603 mmHg 60%
    09:00 +10°C° 0 mm 1 m/s 604 mmHg 52%
    10:00 +11°C° 0 mm 1 m/s 604 mmHg 50%
    11:00 +12°C° 0 mm 2 m/s 604 mmHg 48%
    12:00 +13°C° 0 mm 2 m/s 604 mmHg 46%
    13:00 +13°C° 0 mm 2 m/s 604 mmHg 48%
    14:00 +12°C° 0 mm 2 m/s 604 mmHg 51%
    15:00 +12°C° 0 mm 2 m/s 603 mmHg 53%
    16:00 +10°C° 0 mm 1 m/s 602 mmHg 63%
    17:00 +9°C° 0 mm 1 m/s 602 mmHg 73%
    18:00 +7°C° 0 mm 1 m/s 601 mmHg 83%
    19:00 +6°C° 0 mm 1 m/s 601 mmHg 81%
    20:00 +6°C° 0 mm 1 m/s 601 mmHg 79%
    21:00 +6°C° 0 mm 1 m/s 601 mmHg 78%
    22:00 +6°C° 0 mm 1 m/s 600 mmHg 74%
    23:00 +6°C° 0 mm 1 m/s 600 mmHg 71%

    Demain, 18 Octobre, Jeudi

    Heure Température Précipitation Vent Pression Humidité
    00:00 +5°C° 0 mm 1 m/s 600 mmHg 67%
    01:00 +5°C° 0 mm 1 m/s 600 mmHg 64%
    02:00 +5°C° 0 mm 1 m/s 600 mmHg 60%
    03:00 +5°C° 0 mm 1 m/s 599 mmHg 57%
    04:00 +5°C° 0 mm 1 m/s 599 mmHg 52%
    05:00 +5°C° 0 mm 1 m/s 599 mmHg 46%
    06:00 +5°C° 0 mm 1 m/s 599 mmHg 41%
    07:00 +7°C° 0 mm 1 m/s 600 mmHg 36%
    08:00 +9°C° 0 mm 1 m/s 601 mmHg 32%
    09:00 +12°C° 0 mm 1 m/s 602 mmHg 27%
    10:00 +13°C° 0 mm 1 m/s 603 mmHg 27%
    11:00 +13°C° 0 mm 1 m/s 603 mmHg 27%
    12:00 +14°C° 0 mm 2 m/s 603 mmHg 27%
    13:00 +14°C° 0 mm 2 m/s 603 mmHg 30%
    14:00 +14°C° 0 mm 2 m/s 603 mmHg 32%
    15:00 +14°C° 0 mm 2 m/s 602 mmHg 35%
    16:00 +12°C° 0 mm 1 m/s 601 mmHg 45%
    17:00 +9°C° 0 mm 1 m/s 601 mmHg 55%
    18:00 +7°C° 0 mm 1 m/s 600 mmHg 65%
    19:00 +7°C° 0 mm 1 m/s 600 mmHg 62%
    20:00 +6°C° 0 mm 1 m/s 600 mmHg 59%
    21:00 +6°C° 0 mm 1 m/s 600 mmHg 57%
    22:00 +6°C° 0 mm 1 m/s 600 mmHg 57%
    23:00 +5°C° 0 mm 1 m/s 600 mmHg 57%

    Après-demain, 19 Octobre, Vendredi

    Heure Température Précipitation Vent Pression Humidité
    00:00 +5°C° 0 mm 1 m/s 599 mmHg 57%
    01:00 +5°C° 0 mm 1 m/s 599 mmHg 58%
    02:00 +5°C° 0 mm 1 m/s 599 mmHg 60%
    03:00 +5°C° 0 mm 1 m/s 599 mmHg 62%
    04:00 +5°C° 0 mm 1 m/s 599 mmHg 61%
    05:00 +5°C° 0 mm 1 m/s 599 mmHg 61%
    06:00 +4°C° 0 mm 1 m/s 599 mmHg 61%
    07:00 +7°C° 0 mm 1 m/s 600 mmHg 54%
    08:00 +9°C° 0 mm 1 m/s 601 mmHg 47%
    09:00 +11°C° 0 mm 1 m/s 602 mmHg 41%
    10:00 +12°C° 0 mm 1 m/s 602 mmHg 38%
    11:00 +13°C° 0 mm 1 m/s 602 mmHg 36%
    12:00 +15°C° 0 mm 1 m/s 603 mmHg 34%
    13:00 +14°C° 0 mm 1 m/s 602 mmHg 36%
    14:00 +14°C° 0 mm 1 m/s 602 mmHg 38%
    15:00 +14°C° 0 mm 1 m/s 602 mmHg 40%
    16:00 +12°C° 0 mm 1 m/s 601 mmHg 49%
    17:00 +10°C° 0 mm 1 m/s 600 mmHg 58%
    18:00 +8°C° 0 mm 1 m/s 599 mmHg 67%
    19:00 +7°C° 0 mm 1 m/s 599 mmHg 69%
    20:00 +7°C° 0 mm 1 m/s 599 mmHg 70%
    21:00 +6°C° 0 mm 2 m/s 599 mmHg 72%
    22:00 +5°C° 0 mm 2 m/s 599 mmHg 74%
    23:00 +5°C° 0 mm 2 m/s 598 mmHg 75%

    20 Octobre, Samedi

    Heure Température Précipitation Vent Pression Humidité
    00:00 +5°C° 0 mm 2 m/s 598 mmHg 76%
    01:00 +5°C° 0 mm 2 m/s 598 mmHg 75%
    02:00 +5°C° 0 mm 2 m/s 598 mmHg 73%
    03:00 +4°C° 0 mm 2 m/s 598 mmHg 71%
    04:00 +4°C° 0 mm 2 m/s 597 mmHg 67%
    05:00 +4°C° 0 mm 2 m/s 597 mmHg 63%
    06:00 +4°C° 0 mm 2 m/s 597 mmHg 59%
    07:00 +7°C° 0 mm 2 m/s 598 mmHg 52%
    08:00 +10°C° 0 mm 1 m/s 599 mmHg 45%
    09:00 +13°C° 0 mm 1 m/s 601 mmHg 38%
    10:00 +14°C° 0 mm 1 m/s 601 mmHg 35%
    11:00 +15°C° 0 mm 2 m/s 601 mmHg 33%
    12:00 +16°C° 0 mm 2 m/s 601 mmHg 31%
    13:00 +16°C° 0 mm 2 m/s 601 mmHg 32%
    14:00 +15°C° 0 mm 2 m/s 601 mmHg 33%
    15:00 +15°C° 0 mm 1 m/s 600 mmHg 34%
    16:00 +13°C° 0 mm 1 m/s 600 mmHg 40%
    17:00 +11°C° 0 mm 1 m/s 599 mmHg 47%
    18:00 +9°C° 0 mm 1 m/s 598 mmHg 53%
    19:00 +9°C° 0 mm 1 m/s 598 mmHg 53%
    20:00 +9°C° 0 mm 1 m/s 598 mmHg 53%
    21:00 +8°C° 0 mm 1 m/s 598 mmHg 53%
    22:00 +8°C° 0 mm 1 m/s 598 mmHg 54%
    23:00 +8°C° 0 mm 1 m/s 598 mmHg 55%

    21 Octobre, Dimanche

    Heure Température Précipitation Vent Pression Humidité
    00:00 +8°C° 0 mm 1 m/s 597 mmHg 56%
    01:00 +7°C° 0 mm 1 m/s 597 mmHg 57%
    02:00 +6°C° 0 mm 2 m/s 597 mmHg 58%
    03:00 +6°C° 0 mm 2 m/s 597 mmHg 59%
    04:00 +6°C° 0 mm 2 m/s 597 mmHg 58%
    05:00 +6°C° 0 mm 2 m/s 597 mmHg 57%
    06:00 +6°C° 0 mm 2 m/s 597 mmHg 56%
    07:00 +8°C° 0 mm 2 m/s 598 mmHg 53%
    08:00 +11°C° 0 mm 1 m/s 599 mmHg 49%
    09:00 +13°C° 0 mm 1 m/s 599 mmHg 45%
    10:00 +14°C° 0 mm 2 m/s 600 mmHg 43%
    11:00 +15°C° 0 mm 2 m/s 600 mmHg 41%
    12:00 +16°C° 0 mm 2 m/s 600 mmHg 38%
    13:00 +15°C° 0 mm 2 m/s 599 mmHg 39%
    14:00 +15°C° 0 mm 2 m/s 599 mmHg 40%
    15:00 +15°C° 0 mm 2 m/s 598 mmHg 41%
    16:00 +13°C° 0 mm 2 m/s 598 mmHg 47%
    17:00 +11°C° 0 mm 1 m/s 597 mmHg 53%
    18:00 +10°C° 0 mm 1 m/s 597 mmHg 58%
    19:00 +9°C° 0 mm 1 m/s 597 mmHg 59%
    20:00 +9°C° 0 mm 1 m/s 596 mmHg 60%
    21:00 +7°C° 0 mm 2 m/s 596 mmHg 61%
    22:00 +7°C° 0 mm 2 m/s 596 mmHg 62%
    23:00 +7°C° 0 mm 2 m/s 596 mmHg 63%

    22 Octobre, Lundi

    Heure Température Précipitation Vent Pression Humidité
    00:00 +7°C° 0 mm 2 m/s 596 mmHg 64%
    01:00 +6°C° 0 mm 2 m/s 596 mmHg 66%
    02:00 +6°C° 0 mm 2 m/s 596 mmHg 68%
    03:00 +6°C° 0 mm 2 m/s 596 mmHg 70%
    04:00 +7°C° 0 mm 1 m/s 596 mmHg 71%
    05:00 +7°C° 0 mm 1 m/s 596 mmHg 72%
    06:00 +7°C° 0 mm 1 m/s 596 mmHg 72%
    07:00 +9°C° 0 mm 1 m/s 597 mmHg 65%
    08:00 +10°C° 0 mm 1 m/s 598 mmHg 57%
    09:00 +12°C° 0 mm 1 m/s 599 mmHg 50%
    10:00 +13°C° 0 mm 2 m/s 599 mmHg 47%
    11:00 +14°C° 0 mm 2 m/s 599 mmHg 43%
    12:00 +15°C° 0 mm 2 m/s 599 mmHg 40%
    13:00 +15°C° 0 mm 2 m/s 599 mmHg 41%
    14:00 +14°C° 0 mm 2 m/s 599 mmHg 42%
    15:00 +14°C° 0 mm 2 m/s 599 mmHg 44%
    16:00 +12°C° 0 mm 2 m/s 598 mmHg 51%
    17:00 +11°C° 0 mm 1 m/s 598 mmHg 57%
    18:00 +9°C° 0 mm 1 m/s 597 mmHg 64%
    19:00 +9°C° 0 mm 1 m/s 598 mmHg 63%
    20:00 +8°C° 0 mm 1 m/s 598 mmHg 62%
    21:00 +8°C° 0 mm 1 m/s 598 mmHg 60%
    22:00 +8°C° 0.1 mm 1 m/s 598 mmHg 60%
    23:00 +8°C° 0.1 mm 1 m/s 598 mmHg 60%
    Voir plus